When you browse on this site, cookies collect data to enhance your experience and personalize the content and advertising you see.
Visit our Privacy Policy to learn more. By continuing to use the site, you agree to this use of cookies and data.
  • In Hungary
  • List of Countries
  • For 7 days
  • Water Temperature
  • Weather Map
  • News
  • Weather Widgets
  • user-avatar
    Login

    Hourly Weather Staryy Stan

    Today, 23 January, Thursday

    Time Temperature Precipitation Wind Pressure Humidity
    00:00 -4°C° 0 mm 6 mps 739 mmHg 79%
    01:00 -4°C° 0 mm 6 mps 740 mmHg 78%
    02:00 -5°C° 0 mm 6 mps 740 mmHg 76%
    03:00 -6°C° 0 mm 7 mps 741 mmHg 74%
    04:00 -6°C° 0 mm 7 mps 741 mmHg 71%
    05:00 -6°C° 0 mm 8 mps 742 mmHg 68%
    06:00 -6°C° 0 mm 7 mps 742 mmHg 69%
    07:00 -7°C° 0 mm 7 mps 743 mmHg 70%
    08:00 -6°C° 0 mm 6 mps 744 mmHg 71%
    09:00 -5°C° 0 mm 6 mps 744 mmHg 70%
    10:00 -6°C° 0 mm 7 mps 745 mmHg 69%
    11:00 -5°C° 0 mm 8 mps 745 mmHg 68%
    12:00 -4°C° 0 mm 7 mps 745 mmHg 63%
    13:00 -4°C° 0 mm 7 mps 746 mmHg 58%
    14:00 -4°C° 0 mm 7 mps 746 mmHg 53%
    15:00 -4°C° 0 mm 6 mps 746 mmHg 57%
    16:00 -5°C° 0 mm 5 mps 746 mmHg 62%
    17:00 -4°C° 0 mm 4 mps 747 mmHg 67%
    18:00 -4°C° 0 mm 4 mps 747 mmHg 67%
    19:00 -4°C° 0 mm 4 mps 747 mmHg 67%
    20:00 -4°C° 0 mm 4 mps 747 mmHg 67%
    21:00 -4°C° 0 mm 4 mps 747 mmHg 72%
    22:00 -4°C° 0 mm 4 mps 747 mmHg 77%
    23:00 -4°C° 0 mm 3 mps 747 mmHg 81%

    Tomorrow, 24 January, Friday

    Time Temperature Precipitation Wind Pressure Humidity
    00:00 -3°C° 0 mm 4 mps 747 mmHg 84%
    01:00 -3°C° 0 mm 4 mps 746 mmHg 86%
    02:00 -3°C° 0 mm 4 mps 746 mmHg 88%
    03:00 -4°C° 0 mm 5 mps 745 mmHg 88%
    04:00 -4°C° 0 mm 5 mps 745 mmHg 87%
    05:00 -4°C° 0 mm 5 mps 744 mmHg 87%
    06:00 -4°C° 0.2 mm 6 mps 743 mmHg 89%
    07:00 -4°C° 0.2 mm 6 mps 743 mmHg 92%
    08:00 -4°C° 0.2 mm 6 mps 743 mmHg 94%
    09:00 -3°C° 0.3 mm 6 mps 742 mmHg 95%
    10:00 -3°C° 0.3 mm 7 mps 742 mmHg 96%
    11:00 -2°C° 0.3 mm 7 mps 741 mmHg 96%
    12:00 -1°C° 0.1 mm 7 mps 741 mmHg 95%
    13:00 -1°C° 0.1 mm 7 mps 740 mmHg 93%
    14:00 0°C° 0.1 mm 7 mps 740 mmHg 92%
    15:00 0°C° 0 mm 7 mps 740 mmHg 92%
    16:00 0°C° 0 mm 7 mps 739 mmHg 91%
    17:00 0°C° 0 mm 8 mps 739 mmHg 91%
    18:00 0°C° 0 mm 7 mps 739 mmHg 91%
    19:00 0°C° 0 mm 7 mps 739 mmHg 91%
    20:00 0°C° 0 mm 7 mps 740 mmHg 91%
    21:00 0°C° 0 mm 7 mps 739 mmHg 91%
    22:00 0°C° 0 mm 7 mps 739 mmHg 92%
    23:00 0°C° 0 mm 7 mps 739 mmHg 92%

    Day after tomorrow, 25 January, Saturday

    Time Temperature Precipitation Wind Pressure Humidity
    00:00 0°C° 0 mm 7 mps 739 mmHg 92%
    01:00 0°C° 0 mm 7 mps 739 mmHg 91%
    02:00 +1°C° 0 mm 6 mps 739 mmHg 91%
    03:00 +1°C° 0 mm 6 mps 738 mmHg 91%
    04:00 -1°C° 0 mm 6 mps 738 mmHg 91%
    05:00 -1°C° 0 mm 6 mps 738 mmHg 91%
    06:00 -1°C° 0.1 mm 6 mps 738 mmHg 91%
    07:00 -1°C° 0.1 mm 6 mps 738 mmHg 91%
    08:00 -1°C° 0.1 mm 6 mps 738 mmHg 91%
    09:00 -1°C° 0.1 mm 6 mps 738 mmHg 88%
    10:00 -1°C° 0.1 mm 6 mps 738 mmHg 86%
    11:00 +1°C° 0.1 mm 6 mps 738 mmHg 84%
    12:00 0°C° 0 mm 7 mps 738 mmHg 81%
    13:00 0°C° 0 mm 7 mps 738 mmHg 79%
    14:00 0°C° 0 mm 7 mps 738 mmHg 76%
    15:00 -1°C° 0 mm 6 mps 738 mmHg 78%
    16:00 -2°C° 0 mm 6 mps 738 mmHg 80%
    17:00 -2°C° 0 mm 6 mps 738 mmHg 82%
    18:00 -2°C° 0 mm 6 mps 739 mmHg 82%
    19:00 -2°C° 0 mm 6 mps 739 mmHg 83%
    20:00 -3°C° 0 mm 6 mps 740 mmHg 83%
    21:00 -3°C° 0 mm 6 mps 740 mmHg 84%
    22:00 -2°C° 0 mm 5 mps 741 mmHg 85%
    23:00 -2°C° 0 mm 5 mps 741 mmHg 85%

    26 January, Sunday

    Time Temperature Precipitation Wind Pressure Humidity
    00:00 -2°C° 0 mm 5 mps 742 mmHg 85%
    01:00 -4°C° 0 mm 5 mps 742 mmHg 84%
    02:00 -4°C° 0 mm 5 mps 743 mmHg 84%
    03:00 -4°C° 0 mm 5 mps 743 mmHg 85%
    04:00 -4°C° 0 mm 5 mps 744 mmHg 86%
    05:00 -3°C° 0 mm 4 mps 744 mmHg 87%
    06:00 -4°C° 0 mm 4 mps 745 mmHg 87%
    07:00 -4°C° 0 mm 3 mps 746 mmHg 87%
    08:00 -4°C° 0 mm 3 mps 746 mmHg 88%
    09:00 -2°C° 0 mm 3 mps 747 mmHg 83%
    10:00 -2°C° 0 mm 3 mps 747 mmHg 79%
    11:00 -1°C° 0 mm 3 mps 748 mmHg 75%
    12:00 -1°C° 0 mm 3 mps 748 mmHg 74%
    13:00 0°C° 0 mm 3 mps 748 mmHg 73%
    14:00 0°C° 0 mm 3 mps 748 mmHg 71%
    15:00 -1°C° 0 mm 3 mps 749 mmHg 75%
    16:00 -1°C° 0 mm 2 mps 749 mmHg 79%
    17:00 -2°C° 0 mm 2 mps 749 mmHg 82%
    18:00 -2°C° 0 mm 2 mps 749 mmHg 84%
    19:00 -2°C° 0 mm 3 mps 749 mmHg 85%
    20:00 -2°C° 0 mm 3 mps 749 mmHg 87%
    21:00 -1°C° 0 mm 3 mps 749 mmHg 88%
    22:00 -1°C° 0 mm 3 mps 749 mmHg 89%
    23:00 -1°C° 0 mm 3 mps 749 mmHg 90%

    27 January, Monday

    Time Temperature Precipitation Wind Pressure Humidity
    00:00 -1°C° 0 mm 3 mps 749 mmHg 89%
    01:00 -1°C° 0 mm 3 mps 749 mmHg 87%
    02:00 0°C° 0 mm 3 mps 749 mmHg 86%
    03:00 0°C° 0 mm 3 mps 749 mmHg 85%
    04:00 -1°C° 0 mm 4 mps 748 mmHg 85%
    05:00 -1°C° 0 mm 4 mps 748 mmHg 85%
    06:00 -1°C° 0 mm 4 mps 748 mmHg 86%
    07:00 -2°C° 0 mm 4 mps 748 mmHg 86%
    08:00 -2°C° 0 mm 4 mps 748 mmHg 87%
    09:00 -1°C° 0 mm 4 mps 747 mmHg 86%
    10:00 -1°C° 0 mm 4 mps 747 mmHg 85%
    11:00 -1°C° 0 mm 4 mps 747 mmHg 84%
    12:00 -1°C° 0 mm 4 mps 746 mmHg 87%
    13:00 -1°C° 0 mm 4 mps 746 mmHg 90%
    14:00 -1°C° 0 mm 5 mps 745 mmHg 92%
    15:00 -1°C° 0.1 mm 4 mps 745 mmHg 94%
    16:00 -1°C° 0.1 mm 4 mps 744 mmHg 95%
    17:00 -1°C° 0.1 mm 4 mps 744 mmHg 97%
    18:00 -1°C° 0 mm 4 mps 744 mmHg 97%
    19:00 -1°C° 0 mm 4 mps 743 mmHg 96%
    20:00 -1°C° 0 mm 5 mps 743 mmHg 96%
    21:00 -1°C° 0.1 mm 5 mps 742 mmHg 96%
    22:00 -1°C° 0.1 mm 4 mps 742 mmHg 97%
    23:00 -1°C° 0.1 mm 4 mps 742 mmHg 97%

    28 January, Tuesday

    Time Temperature Precipitation Wind Pressure Humidity
    00:00 -1°C° 0.1 mm 4 mps 742 mmHg 96%
    01:00 -1°C° 0.1 mm 4 mps 741 mmHg 95%
    02:00 -1°C° 0.1 mm 4 mps 741 mmHg 93%
    03:00 0°C° 0.3 mm 4 mps 741 mmHg 95%
    04:00 0°C° 0.3 mm 5 mps 741 mmHg 96%
    05:00 0°C° 0.3 mm 5 mps 741 mmHg 97%
    06:00 0°C° 0.1 mm 5 mps 741 mmHg 94%
    07:00 0°C° 0.1 mm 5 mps 741 mmHg 91%
    08:00 0°C° 0.1 mm 5 mps 741 mmHg 87%
    09:00 0°C° 0 mm 5 mps 742 mmHg 86%
    10:00 0°C° 0 mm 5 mps 742 mmHg 84%
    11:00 0°C° 0 mm 5 mps 743 mmHg 82%
    12:00 0°C° 0 mm 4 mps 743 mmHg 81%
    13:00 0°C° 0 mm 4 mps 743 mmHg 81%
    14:00 0°C° 0 mm 4 mps 743 mmHg 80%
    15:00 0°C° 0 mm 3 mps 743 mmHg 84%
    16:00 0°C° 0 mm 3 mps 743 mmHg 87%
    17:00 -1°C° 0 mm 2 mps 743 mmHg 91%
    18:00 -1°C° 0 mm 3 mps 743 mmHg 91%
    19:00 -1°C° 0 mm 3 mps 743 mmHg 90%
    20:00 -2°C° 0 mm 4 mps 743 mmHg 90%
    21:00 -1°C° 0 mm 4 mps 743 mmHg 90%
    22:00 -1°C° 0 mm 4 mps 742 mmHg 90%
    23:00 -1°C° 0 mm 5 mps 742 mmHg 90%
    Show more